Tracking 27079 objects as of 24-Mar-2023
HD Live streaming from Space Station
objects crossing your sky now

OBJECT K

Track OBJECT K now!
10-day predictions


NORAD ID: 49404
Int'l Code: 2021-102K
Perigee: 537.3 km
Apogee: 572.3 km
Inclination: 97.5 °
Period: 95.6 minutes
Semi major axis: 6925 km
RCS: Unknown
Launch date: November 9, 2021
Source: Japan (JPN)
Launch site: KAGOSHIMA SPACE CENTER UNIVERSITY OF TOKYO (KSCUT)

Note: This is a ROCKET BODY
Your satellite tracking list
Your tracking list is empty




NASA's NSSDC Master Catalog

Two Line Element Set (TLE):
1 49404U 21102K   23082.70218953  .00006152  00000-0  42046-3 0  9990
2 49404  97.4928 139.7565 0025248 351.7967   8.2844 15.06243414 75139
Source of the keplerian elements: AFSPC